{"data":{"norad_id":68054,"epoch":"2026-05-25T03:09:18.794592Z","epoch_age_seconds":63835,"freshness":"FRESH","line1":"1 68054U 26041Q   26145.13146753  .00012174  00000+0  37086-3 0  9995","line2":"2 68054  53.1600  53.2860 0001180  97.5536 262.5600 15.34398737 13116","mean_motion":15.34398737,"eccentricity":0.000118,"inclination_deg":53.16,"raan_deg":53.286,"arg_perigee_deg":97.5536,"mean_anomaly_deg":262.56,"bstar":0.00037086,"rev_number":1311,"period_min":93.847835329651,"perigee_km":461.89977452054,"apogee_km":463.51421370315,"semimajor_km":6840.8439941118,"source":"CELESTRAK","updated_at":"2026-05-25T13:38:21.813460Z"}}